Location: Eastview
(35.0756°N, 88.5453°W)
Time: 04:45:01
(UTC+00:00)

Cosmos 1933 - Pass Details

Date: 22 November 2019
Orbit: 546 x 565 km, 82.5° (Epoch: 14 December)

Event Time Altitude Azimuth Distance (km) Brightness Sun altitude
Rises 23:26:08 0° 173° (S) 2,734 7.0 -8.7°
Reaches altitude 10° 23:28:21 10° 167° (SSE) 1,841 6.1 -9.1°
Maximum altitude 23:32:15 48° 93° (E) 734 3.6 -9.9°
Drops below altitude 10° 23:36:10 10° 19° (NNE) 1,843 5.7 -10.6°
Sets 23:38:23 0° 14° (NNE) 2,739 6.6 -11.1°
